Regional Weather Roundup
Issued by NWS

Home | Current Version | Previous Version | Graphics & Text | Print | Product List | Glossary On
Versions: 1 2 3 4 5 6 7 8 9 10 11 12 13 14 15 16 17 18 19 20 21 22 23 24 25 26 27 28 29 30 31 32 33 34 35 36 37 38 39 40 41 42 43 44 45 46 47 48 49 50
000
ASUS43 KDTX 290410
RWRMI
MICHIGAN HOURLY REGIONAL WEATHER ROUNDUP
NATIONAL WEATHER SERVICE DETROIT/PONTIAC MI
1200 AM EDT SUN MAR 29 2015

NOTE: "FAIR" INDICATES FEW OR NO CLOUDS BELOW 12,000 FEET WITH NO
SIGNIFICANT WEATHER AND/OR OBSTRUCTION TO VISIBILITY.

MIZ047>049-052>055-059>063-066>070-074>076-081>083-290500-
SOUTHEAST LOWER MICHIGAN

CITY           SKY/WX    TMP DP  RH WIND       PRES   REMARKS
ADRIAN         CLEAR     25  17  72 CALM      30.31R
ALMA           CLEAR     26  12  54 SW3       30.28F
ANN ARBOR      CLEAR     20  15  81 CALM      30.30R
BAD AXE        CLEAR     26  11  54 SW6       30.26S
DETROIT CITY   CLEAR     27  15  61 CALM      30.31S
DETROIT        CLEAR     26  17  68 CALM      30.31S
FLINT          CLEAR     27   9  46 S6        30.29R
GROSSE ILE     CLEAR     27  21  80 CALM      30.30R
HILLSDALE      CLEAR     24   9  53 CALM      30.28R
HOWELL         CLEAR     23  11  60 S3        30.28S

CITY           SKY/WX    TMP DP  RH WIND       PRES   REMARKS
JACKSON        CLEAR     22  10  60 SW8       30.30R
LAMBERTVILLE   CLEAR     25  18  74 CALM      30.32R
LANSING        CLEAR     25  12  58 W7        30.31R
LAPEER         NOT AVBL
MASON            N/A     24  11  56 W5        30.30R
MONROE           N/A     25  18  74 CALM      30.30R
MT. CLEMENS    CLEAR     20  16  81 S6        30.28S
PONTIAC        CLEAR     24  12  60 CALM      30.28R
PORT HOPE        N/A     26  17  68 S3        30.23F
PORT HURON     CLEAR     19  18  93 S5        30.30S
TRI CITIES     CLEAR     29  13  51 SW8       30.28S
YPSILANTI      CLEAR     27  13  55 CALM      30.30S
$$
MIZ043>046-050>051-056>058-064>065-071>073-077>080-290500-
SOUTHWEST LOWER MICHIGAN

CITY           SKY/WX    TMP DP  RH WIND       PRES   REMARKS
BATTLE CREEK   CLEAR     25  12  58 S3        30.30S
BENTON HARBOR  CLEAR     16  11  80 CALM      30.31S
BIG RAPIDS     CLEAR     24  10  55 CALM      30.25S
COLDWATER      CLEAR     20  13  74 CALM      30.30S
HOLLAND        CLEAR     21  12  68 S6        30.30S
GRAND RAPIDS   CLEAR     21  10  62 S3        30.29F
KALAMAZOO      CLEAR     25  11  55 CALM      30.30S
MARSHALL       CLEAR     21  11  65 CALM      30.29S
MUSKEGON       CLEAR     22  12  65 S5        30.29F
$$
MIZ016>042-290500-
NORTHERN LOWER MICHIGAN

CITY           SKY/WX    TMP DP  RH WIND       PRES   REMARKS
ALPENA         CLEAR     20  14  77 CALM      30.23F
BEAVER ISLAND  CLEAR     26  15  63 S9        30.18F
BELLAIRE       CLEAR     19  14  81 CALM      30.22F
CADILLAC       CLEAR     21   9  61 SW5       30.20F
CHARLEVOIX     CLEAR     26   7  43 S6        30.23F
FRANKFORT      PTCLDY    26   5  39 CALM      30.23S
GAYLORD        CLEAR     20   6  55 CALM      30.18F
GRAYLING       CLEAR     17  10  74 CALM      30.21F
HARBOR SPRINGS CLEAR     18   9  69 CALM      30.20F
HOUGHTON LAKE  CLEAR     21  10  62 S3        30.22F
MANISTEE       CLEAR     25   9  50 CALM      30.25S
OSCODA         CLEAR     17  13  83 CALM      30.23F
PELLSTON       CLEAR     18   9  68 CALM      30.20F
TRAVERSE CITY  CLEAR     26   7  44 VRB3      30.22F
$$
MIZ007>008-015-290500-
EASTERN UPPER MICHIGAN

CITY           SKY/WX    TMP DP  RH WIND       PRES   REMARKS
KINROSS        CLEAR     18  16  93 S5        30.16F
MACKINAC ISLAN CLEAR     22   6  51 S8        30.17F
NEWBERRY       CLEAR     21  19  93 S13       30.13F
S. S. MARIE    PTCLDY    18  12  77 CALM      30.16F
$$
MIZ004>006-011>014-085-290500-
CENTRAL UPPER MICHIGAN

CITY           SKY/WX    TMP DP  RH WIND       PRES   REMARKS
MANISTIQUE     PTCLDY    30  26  87 S14G20    30.14F
ESCANABA       CLEAR     30  25  80 S13       30.13F
MENOMINEE      MOCLDY    28  19  69 SW12      30.15F
SAWYER-GWINN   PTCLDY    27  17  65 S13       30.06F
$$
MIZ001>003-009>011-084-290500-
WESTERN UPPER MICHIGAN

CITY           SKY/WX    TMP DP  RH WIND       PRES   REMARKS
IRON MOUNTAIN  PTCLDY    31  12  45 S12       30.06F
HOUGHTON       PTCLDY    28  11  48 S7        29.96F
COPPER HARBOR    N/A     25  18  74 SW7       29.98F
IRONWOOD       PTCLDY    34  10  37 S16G25    29.95F
$$

ABBREVIATIONS USED IN REMARKS
   TC - TEMPERATURE IN CELSIUS
  WCI - WIND CHILL INDEX
   HX - HEAT INDEX
  VSB - VISIBILITY



USA.gov is the U.S. government's official web portal to all federal, state and local government web resources and services.